 ,,�O�C���x [��],����1,�O�C���x [��],����2,���ԉ��x [��],����3,���Ԏ��x [��],����4,�Q�����x [��],����5,�Q�����x [��],����6,�Q�X�g���[��(��󒲎�)���x [��],����7,���� [��],����8
2003/11/1,0:00,9.3,0,100,0,18.4,0,63.2,0,18.7,0,57.4,0,18.5,0,15.3,0
2003/11/1,0:15,9.4,0,100,0,18.4,0,62.9,0,18.7,0,57.5,0,18.4,0,15.4,0
2003/11/1,0:30,9.3,0,100,0,18.3,0,62.5,0,18.6,0,57.4,0,18.4,0,15.4,0
2003/11/1,0:45,9.3,0,100,0,18.3,0,62.4,0,18.6,0,57.4,0,18.3,0,15.5,0
2003/11/1,1:00,9.2,0,100,0,18.3,0,62.1,0,18.5,0,57.4,0,18.3,0,15.5,0
2003/11/1,1:15,9.1,0,100,0,18.2,0,62.5,0,18.5,0,57.6,0,18.2,0,15.6,0
2003/11/1,1:30,9.1,0,100,0,18.2,0,62.7,0,18.5,0,58.6,0,18.2,0,15.6,0
2003/11/1,1:45,9.1,0,100,0,18.2,0,62.5,0,18.5,0,58.3,0,18.2,0,15.7,0
2003/11/1,2:00,9.2,0,100,0,18.1,0,62.3,0,18.4,0,57.9,0,18.1,0,15.7,0
2003/11/1,2:15,9.2,0,100,0,18.1,0,62.2,0,18.4,0,57.8,0,18.1,0,15.8,0
2003/11/1,2:30,9.2,0,100,0,18,0,62.1,0,18.3,0,57.8,0,18.1,0,15.8,0
2003/11/1,2:45,9.4,0,100,0,18,0,62,0,18.3,0,57.7,0,18,0,15.9,0
2003/11/1,3:00,9.4,0,100,0,17.9,0,61.9,0,18.2,0,57.8,0,18,0,15.9,0
2003/11/1,3:15,9.5,0,100,0,17.9,0,61.9,0,18.2,0,57.9,0,17.9,0,16,0
2003/11/1,3:30,9.5,0,100,0,17.8,0,61.8,0,18.2,0,57.8,0,17.9,0,16,0
2003/11/1,3:45,9.5,0,100,0,17.8,0,61.8,0,18.1,0,57.9,0,17.8,0,16.1,0
2003/11/1,4:00,9.4,0,100,0,17.8,0,61.8,0,18.1,0,58,0,17.8,0,16.1,0
2003/11/1,4:15,9.5,0,100,0,17.7,0,61.8,0,18.1,0,57.9,0,17.7,0,16.1,0
2003/11/1,4:30,9.4,0,100,0,17.7,0,61.8,0,18,0,57.8,0,17.7,0,16.2,0
2003/11/1,4:45,9.2,0,100,0,17.6,0,61.8,0,18,0,57.9,0,17.6,0,16.2,0
2003/11/1,5:00,9,0,100,0,17.6,0,61.8,0,17.9,0,58.2,0,17.6,0,16.3,0
2003/11/1,5:15,8.9,0,100,0,17.5,0,61.7,0,17.9,0,57.9,0,17.6,0,16.3,0
2003/11/1,5:30,8.7,0,100,0,17.5,0,61.7,0,17.9,0,57.8,0,17.5,0,16.3,0
2003/11/1,5:45,8.5,0,100,0,17.5,0,61.7,0,17.8,0,57.9,0,17.5,0,16.4,0
2003/11/1,6:00,8.4,0,100,0,17.4,0,61.7,0,17.8,0,57.8,0,17.4,0,16.4,0
2003/11/1,6:15,8.3,0,100,0,17.4,0,61.6,0,17.8,0,57.9,0,17.4,0,16.5,0
2003/11/1,6:30,8.4,0,100,0,17.3,0,61.6,0,17.7,0,57.9,0,17.3,0,16.5,0
2003/11/1,6:45,8.5,0,100,0,17.3,0,61.6,0,17.7,0,57.9,0,17.3,0,16.5,0
2003/11/1,7:00,8.6,0,100,0,17.3,0,61.9,0,17.7,0,57.9,0,17.2,0,16.5,0
2003/11/1,7:15,8.8,0,100,0,17.4,0,63.5,0,17.7,0,58,0,17.2,0,16.6,0
2003/11/1,7:30,9.4,0,100,0,17.5,0,67.9,0,17.8,0,58.3,0,17.3,0,16.6,0
2003/11/1,7:45,9.8,0,100,0,17.7,0,66.7,0,17.9,0,58,0,17.3,0,15.2,0
2003/11/1,8:00,10.5,0,100,0,17.8,0,65.9,0,17.9,0,57.4,0,17.4,0,15,0
2003/11/1,8:15,10.9,0,98.5,0,17.8,0,66.3,0,18.1,0,57.7,0,17.4,0,15,0
2003/11/1,8:30,11.5,0,96.3,0,18,0,66.2,0,18.3,0,58.2,0,17.5,0,15.1,0
2003/11/1,8:45,12.2,0,93.3,0,18,0,65.9,0,18.4,0,58.4,0,17.6,0,15.1,0
2003/11/1,9:00,12.7,0,93.2,0,18,0,65.8,0,18.6,0,58.4,0,17.6,0,15.2,0
2003/11/1,9:15,13.1,0,91.5,0,18.1,0,65.3,0,18.8,0,58.2,0,17.7,0,15.3,0
2003/11/1,9:30,13.5,0,89.4,0,18.1,0,65.1,0,19,0,57.9,0,17.8,0,15.3,0
2003/11/1,9:45,14,0,88,0,18.1,0,64.8,0,19.1,0,57.4,0,17.8,0,15.4,0
2003/11/1,10:00,14.8,0,81.5,0,18.2,0,64.7,0,19.3,0,57.1,0,17.9,0,15.5,0
2003/11/1,10:15,14.7,0,81.6,0,18.2,0,64.5,0,19.5,0,56.8,0,18,0,15.6,0
2003/11/1,10:30,15.2,0,80.1,0,18.2,0,64.4,0,19.6,0,56.5,0,18.1,0,15.6,0
2003/11/1,10:45,16.1,0,76.4,0,18.3,0,64.4,0,19.7,0,56.3,0,18.2,0,15.7,0
2003/11/1,11:00,16.7,0,74.2,0,18.3,0,64.3,0,19.9,0,56,0,18.2,0,15.8,0
2003/11/1,11:15,17.2,0,70.8,0,18.3,0,64.2,0,20,0,55.9,0,18.3,0,15.9,0
2003/11/1,11:30,17.7,0,67.1,0,18.3,0,64.1,0,20.1,0,55.6,0,18.4,0,15.9,0
2003/11/1,11:45,18.2,0,64.6,0,18.4,0,64.2,0,20.2,0,55.4,0,18.5,0,16,0
2003/11/1,12:00,18.7,0,62.8,0,18.4,0,64.1,0,20.2,0,55.4,0,18.6,0,16.1,0
2003/11/1,12:15,19.3,0,60.4,0,18.4,0,64.1,0,20.3,0,55.4,0,18.7,0,16.1,0
2003/11/1,12:30,19.2,0,61,0,18.5,0,63.9,0,20.5,0,55.1,0,18.8,0,16.2,0
2003/11/1,12:45,19.4,0,58.8,0,18.6,0,63.7,0,20.6,0,55.1,0,18.9,0,16.3,0
2003/11/1,13:00,19.6,0,63.7,0,18.6,0,63.5,0,20.8,0,54.7,0,19.1,0,16.3,0
2003/11/1,13:15,19.7,0,65,0,18.7,0,63.4,0,20.9,0,54.6,0,19.2,0,16.4,0
2003/11/1,13:30,19.9,0,65.4,0,18.8,0,63.3,0,21.1,0,54.2,0,19.3,0,16.4,0
2003/11/1,13:45,20.7,0,63.6,0,18.9,0,63.3,0,21.2,0,54.2,0,19.5,0,16.5,0
2003/11/1,14:00,20.5,0,64.6,0,18.9,0,63.4,0,21.3,0,54.2,0,19.7,0,16.5,0
2003/11/1,14:15,20.6,0,64.4,0,19.1,0,63.6,0,21.5,0,54.2,0,19.9,0,16.6,0
2003/11/1,14:30,20.3,0,65.1,0,19.1,0,63.8,0,21.6,0,54,0,20.1,0,16.7,0
2003/11/1,14:45,20,0,66.1,0,19.2,0,64,0,21.7,0,54.1,0,20.3,0,16.7,0
2003/11/1,15:00,19.3,0,70.2,0,19.3,0,64.2,0,21.6,0,54.4,0,20.5,0,15.8,0
2003/11/1,15:15,18.9,0,73.4,0,19.2,0,64.6,0,21.5,0,54.8,0,20.7,0,16,0
2003/11/1,15:30,18.4,0,75,0,19.4,0,65.1,0,21.5,0,55,0,20.9,0,15.6,0
2003/11/1,15:45,18.1,0,76.8,0,19.4,0,65.5,0,21.5,0,55.3,0,20.9,0,15.7,0
2003/11/1,16:00,17.7,0,80.6,0,19.3,0,65.8,0,21.4,0,55.5,0,20.9,0,15.7,0
2003/11/1,16:15,17.1,0,84.3,0,19.3,0,65.8,0,21.3,0,55.7,0,20.9,0,15.8,0
2003/11/1,16:30,16.3,0,89.2,0,19.2,0,65.8,0,21.2,0,55.8,0,20.9,0,15.8,0
2003/11/1,16:45,15.7,0,91.2,0,19.2,0,65.9,0,21.1,0,56.1,0,20.8,0,15.9,0
2003/11/1,17:00,15.1,0,93.1,0,19.2,0,65.9,0,21.1,0,56.3,0,20.8,0,15.9,0
2003/11/1,17:15,14.8,0,94.5,0,19.4,0,66.7,0,21,0,56.7,0,20.7,0,16,0
2003/11/1,17:30,14.4,0,96.2,0,19.4,0,67.3,0,20.9,0,57,0,20.7,0,16,0
2003/11/1,17:45,14.2,0,97,0,19.6,0,73,0,21,0,57,0,20.6,0,16.1,0
2003/11/1,18:00,13.9,0,97.6,0,19.8,0,73.2,0,21,0,57.4,0,20.6,0,16.1,0
2003/11/1,18:15,13.7,0,97.9,0,19.7,0,71.9,0,20.9,0,57.6,0,20.6,0,16.2,0
2003/11/1,18:30,13.5,0,98.2,0,19.8,0,71.8,0,20.9,0,58.4,0,20.6,0,15.4,0
2003/11/1,18:45,13.4,0,99.1,0,19.8,0,70.7,0,20.8,0,58.7,0,20.6,0,15.5,0
2003/11/1,19:00,13.3,0,98.8,0,19.8,0,69.9,0,20.7,0,58.8,0,20.6,0,15.5,0
2003/11/1,19:15,13,0,99.1,0,19.8,0,69.3,0,20.7,0,58.7,0,20.6,0,15.6,0
2003/11/1,19:30,12.8,0,99.7,0,19.8,0,68.8,0,20.6,0,58.7,0,20.5,0,15.4,0
2003/11/1,19:45,12.8,0,100,0,19.8,0,68.4,0,20.6,0,58.9,0,20.5,0,15.4,0
2003/11/1,20:00,13,0,100,0,19.8,0,68.3,0,20.5,0,59,0,20.4,0,15.5,0
2003/11/1,20:15,12.8,0,98.8,0,19.8,0,68.6,0,20.4,0,58.7,0,20.4,0,15,0
2003/11/1,20:30,12.5,0,99,0,19.7,0,68.3,0,20.4,0,58.2,0,20.3,0,15.1,0
2003/11/1,20:45,12.4,0,100,0,19.7,0,67.9,0,20.4,0,58.2,0,20.3,0,15.2,0
2003/11/1,21:00,12.6,0,100,0,19.7,0,68,0,20.3,0,58.2,0,20.2,0,14.9,0
2003/11/1,21:15,12.4,0,99.4,0,19.7,0,67.8,0,20.3,0,58.3,0,20.2,0,15,0
2003/11/1,21:30,12.4,0,99.5,0,19.7,0,67.2,0,20.2,0,58.3,0,20.1,0,15,0
2003/11/1,21:45,12.2,0,99.9,0,19.8,0,67.5,0,20.2,0,58.4,0,20,0,15.1,0
2003/11/1,22:00,12.2,0,100,0,19.8,0,67.7,0,20.1,0,58.4,0,20,0,14.9,0
2003/11/1,22:15,12.2,0,100,0,19.8,0,67.8,0,20.1,0,58.6,0,20,0,15,0
2003/11/1,22:30,12,0,99.9,0,19.8,0,67.2,0,20.1,0,58.7,0,19.9,0,15,0
2003/11/1,22:45,11.8,0,100,0,19.7,0,67.1,0,20.1,0,58.6,0,19.9,0,15,0
2003/11/1,23:00,11.6,0,100,0,19.7,0,66.8,0,20,0,58.7,0,19.8,0,15.1,0
2003/11/1,23:15,11.4,0,100,0,19.7,0,66.4,0,20,0,58.6,0,19.8,0,14.9,0
2003/11/1,23:30,11.2,0,100,0,19.6,0,66,0,20,0,58.7,0,19.8,0,15,0
2003/11/1,23:45,11.2,0,100,0,19.6,0,65.6,0,19.9,0,58.7,0,19.7,0,15,0
2003/11/2,0:00,10.9,0,100,0,19.5,0,65.3,0,19.9,0,58.8,0,19.7,0,15.1,0
2003/11/2,0:15,11.1,0,100,0,19.5,0,65,0,19.8,0,58.8,0,19.7,0,15.2,0
2003/11/2,0:30,11,0,100,0,19.5,0,65.1,0,19.8,0,58.9,0,19.6,0,15.3,0
2003/11/2,0:45,10.8,0,100,0,19.4,0,65.1,0,19.8,0,59,0,19.6,0,15.3,0
2003/11/2,1:00,11.1,0,100,0,19.4,0,64.9,0,19.7,0,58.9,0,19.5,0,15.4,0
2003/11/2,1:15,11.2,0,100,0,19.3,0,65,0,19.7,0,59.1,0,19.5,0,15.4,0
2003/11/2,1:30,11.1,0,100,0,19.3,0,64.4,0,19.6,0,59.2,0,19.4,0,15.5,0
2003/11/2,1:45,11,0,100,0,19.3,0,64.7,0,19.6,0,59.4,0,19.4,0,15.6,0
2003/11/2,2:00,10.7,0,100,0,19.2,0,65.1,0,19.6,0,59.5,0,19.3,0,15.6,0
2003/11/2,2:15,10.6,0,100,0,19.2,0,65.7,0,19.6,0,59.7,0,19.2,0,15.7,0
2003/11/2,2:30,10.6,0,100,0,19.1,0,65.4,0,19.5,0,60.6,0,19.1,0,15.8,0
2003/11/2,2:45,10.4,0,100,0,19.1,0,66.7,0,19.5,0,61,0,19.1,0,15.8,0
2003/11/2,3:00,10.6,0,100,0,19,0,65.7,0,19.5,0,60.7,0,19,0,15.9,0
2003/11/2,3:15,10.7,0,100,0,19,0,65.4,0,19.5,0,61.7,0,18.9,0,15.4,0
2003/11/2,3:30,10.7,0,100,0,18.9,0,65.3,0,19.4,0,62,0,18.8,0,15.4,0
2003/11/2,3:45,10.5,0,100,0,18.9,0,65.3,0,19.4,0,62.1,0,18.8,0,15.4,0
2003/11/2,4:00,10.6,0,100,0,18.8,0,65,0,19.3,0,62.1,0,18.7,0,15.5,0
2003/11/2,4:15,10.5,0,100,0,18.8,0,65.2,0,19.3,0,62.4,0,18.7,0,15.6,0
2003/11/2,4:30,10.1,0,100,0,18.7,0,64.9,0,19.2,0,62.4,0,18.6,0,15.6,0
2003/11/2,4:45,9.9,0,100,0,18.7,0,65.1,0,19.2,0,62.5,0,18.5,0,15.7,0
2003/11/2,5:00,10,0,100,0,18.6,0,64.8,0,19.1,0,62.6,0,18.5,0,15.7,0
2003/11/2,5:15,9.7,0,100,0,18.6,0,64.9,0,19.1,0,62.4,0,18.4,0,15.8,0
2003/11/2,5:30,9.5,0,100,0,18.5,0,65,0,19.1,0,62.6,0,18.4,0,15.9,0
2003/11/2,5:45,9.5,0,100,0,18.5,0,65.3,0,19,0,62.6,0,18.3,0,15.9,0
2003/11/2,6:00,9.4,0,100,0,18.4,0,65,0,19,0,62.6,0,18.3,0,15.9,0
2003/11/2,6:15,9.5,0,100,0,18.4,0,65.2,0,18.9,0,62.5,0,18.2,0,16,0
2003/11/2,6:30,9.4,0,100,0,18.3,0,65.1,0,18.9,0,62.7,0,18.2,0,16.1,0
2003/11/2,6:45,9.8,0,100,0,18.3,0,64.9,0,18.9,0,62.5,0,18.1,0,16.1,0
2003/11/2,7:00,10,0,100,0,18.3,0,64.4,0,18.9,0,62.1,0,18.1,0,16.2,0
2003/11/2,7:15,10.2,0,100,0,18.4,0,67,0,19,0,62,0,18.1,0,15.6,0
2003/11/2,7:30,10.5,0,100,0,18.5,0,68.2,0,19.1,0,61.6,0,18.1,0,15.7,0
2003/11/2,7:45,10.8,0,100,0,18.6,0,70.1,0,19.1,0,60.8,0,18.1,0,15.7,0
2003/11/2,8:00,11.6,0,100,0,18.7,0,71.6,0,19.2,0,59.9,0,18.1,0,15.7,0
2003/11/2,8:15,12,0,100,0,18.8,0,72.9,0,19.3,0,59.7,0,18.2,0,15.3,0
2003/11/2,8:30,13.1,0,98.1,0,19,0,73,0,19.5,0,61.7,0,18.3,0,15.4,0
2003/11/2,8:45,13.9,0,93.7,0,19.2,0,72.4,0,19.7,0,62.1,0,18.4,0,15.5,0
2003/11/2,9:00,14.4,0,92,0,19.4,0,71.5,0,19.9,0,62.6,0,18.5,0,15.5,0
2003/11/2,9:15,14.9,0,91.8,0,19.5,0,71.1,0,20.1,0,62.8,0,18.6,0,14.5,0
2003/11/2,9:30,15.6,0,88.6,0,19.7,0,70.8,0,20.3,0,62.4,0,18.7,0,14.4,0
2003/11/2,9:45,15.7,0,89.1,0,19.5,0,71.1,0,20.6,0,62.2,0,18.8,0,14.5,0
2003/11/2,10:00,16.6,0,82.1,0,19.6,0,70.6,0,20.8,0,61.8,0,18.9,0,14.8,0
2003/11/2,10:15,16.9,0,81.1,0,19.6,0,70.3,0,21,0,61.3,0,19.1,0,14.8,0
2003/11/2,10:30,17.5,0,77.7,0,19.6,0,69.8,0,21.2,0,60.9,0,19.2,0,14.9,0
2003/11/2,10:45,17.7,0,78,0,19.7,0,70.4,0,21.4,0,60.6,0,19.3,0,14.9,0
2003/11/2,11:00,18.3,0,74.9,0,19.7,0,70.1,0,21.6,0,60.2,0,19.4,0,15,0
2003/11/2,11:15,18.7,0,69.3,0,19.8,0,70.3,0,21.8,0,60,0,19.5,0,15.1,0
2003/11/2,11:30,19.1,0,68.2,0,19.9,0,69.9,0,22,0,59.6,0,19.7,0,15.3,0
2003/11/2,11:45,19.8,0,64.1,0,20,0,69.8,0,22.1,0,59.2,0,19.8,0,15.3,0
2003/11/2,12:00,19.9,0,62.5,0,20.1,0,69.3,0,22.2,0,58.9,0,19.9,0,15.2,0
2003/11/2,12:15,20.6,0,59.6,0,20.2,0,73.2,0,22.5,0,58.7,0,20.1,0,15.2,0
2003/11/2,12:30,20.6,0,61,0,20.4,0,74,0,22.7,0,59.8,0,20.3,0,15.3,0
2003/11/2,12:45,21.5,0,54.7,0,20.5,0,72.5,0,23.3,0,54.1,0,20.5,0,15.4,0
2003/11/2,13:00,22,0,53.3,0,20.6,0,71.4,0,23,0,58.6,0,20.7,0,15.5,0
2003/11/2,13:15,22.2,0,58.6,0,20.7,0,71.3,0,23.2,0,58.5,0,20.9,0,15.5,0
2003/11/2,13:30,22.1,0,58.6,0,20.8,0,70.5,0,23.5,0,57.9,0,21.1,0,15.3,0
2003/11/2,13:45,22.2,0,59.2,0,20.9,0,69.3,0,23.5,0,57.8,0,21.3,0,15.4,0
2003/11/2,14:00,22.6,0,54.4,0,21,0,69.4,0,23.6,0,57.5,0,21.5,0,15.5,0
2003/11/2,14:15,22.3,0,55.9,0,21.1,0,69.2,0,23.7,0,57.3,0,21.7,0,15.5,0
2003/11/2,14:30,21.9,0,58.3,0,21.1,0,69.1,0,23.7,0,57.1,0,21.9,0,15.6,0
2003/11/2,14:45,21.1,0,60.7,0,21.1,0,69,0,23.4,0,57.8,0,22.1,0,15.7,0
2003/11/2,15:00,20.2,0,64,0,21.2,0,68.7,0,23.5,0,57.7,0,22.2,0,15.8,0
2003/11/2,15:15,20,0,65.3,0,21.2,0,68.5,0,23.6,0,57.4,0,22.4,0,15.9,0
2003/11/2,15:30,19.6,0,67.2,0,21.2,0,68.3,0,23.6,0,57.4,0,22.8,0,15.6,0
2003/11/2,15:45,19.4,0,67.7,0,21.2,0,68.3,0,23.4,0,57.3,0,22.8,0,15.4,0
2003/11/2,16:00,18.8,0,73.4,0,21.2,0,67.9,0,23.4,0,57.5,0,22.8,0,15.5,0
2003/11/2,16:15,18.3,0,76.1,0,21.2,0,67.7,0,23.2,0,57.8,0,22.7,0,15.5,0
2003/11/2,16:30,17.3,0,82.1,0,21.2,0,67.6,0,23.1,0,57.9,0,22.7,0,15.6,0
2003/11/2,16:45,16.7,0,85,0,21.2,0,67.4,0,23,0,58.2,0,22.6,0,15.7,0
2003/11/2,17:00,16.4,0,85,0,21.2,0,67.1,0,22.8,0,57.8,0,22.6,0,15.3,0
2003/11/2,17:15,16,0,85.6,0,21.2,0,66.7,0,22.8,0,58,0,22.5,0,15.4,0
2003/11/2,17:30,16.1,0,86.8,0,21.1,0,66.2,0,22.7,0,58.3,0,22.5,0,15.5,0
2003/11/2,17:45,15.5,0,88.2,0,21.1,0,66.1,0,22.6,0,58.4,0,22.4,0,15.6,0
2003/11/2,18:00,15.3,0,89.8,0,21.1,0,66.2,0,22.6,0,58.6,0,22.4,0,15.7,0
2003/11/2,18:15,14.9,0,89.4,0,21,0,66,0,22.5,0,58.6,0,22.3,0,15.7,0
2003/11/2,18:30,14.7,0,90.6,0,21,0,66,0,22.4,0,58.8,0,22.3,0,15.8,0
2003/11/2,18:45,14.3,0,92.8,0,20.9,0,65.7,0,22.4,0,58.9,0,22.2,0,15.9,0
2003/11/2,19:00,14.2,0,94.6,0,20.8,0,65.5,0,22.3,0,59,0,22.1,0,16,0
2003/11/2,19:15,14.5,0,92.8,0,20.8,0,65.5,0,22.2,0,59.1,0,22.1,0,16,0
2003/11/2,19:30,14.4,0,92.8,0,20.7,0,65.3,0,22.2,0,59.2,0,22,0,16.1,0
2003/11/2,19:45,14,0,94.5,0,20.7,0,65.5,0,22.1,0,59.4,0,22,0,15.5,0
2003/11/2,20:00,14,0,95.1,0,20.9,0,68.2,0,22,0,59.9,0,21.9,0,15.7,0
2003/11/2,20:15,14,0,94.9,0,20.9,0,67.7,0,22,0,59.9,0,21.9,0,15.8,0
2003/11/2,20:30,14,0,96.7,0,20.9,0,67.7,0,21.9,0,59.9,0,21.8,0,15.9,0
2003/11/2,20:45,13.8,0,96.6,0,20.9,0,67.7,0,21.9,0,60,0,21.8,0,15.4,0
2003/11/2,21:00,13.6,0,97.8,0,20.9,0,67.6,0,21.9,0,60.1,0,21.7,0,15.5,0
2003/11/2,21:15,13.5,0,98.1,0,21,0,67.2,0,21.8,0,60,0,21.7,0,14.7,0
2003/11/2,21:30,13.5,0,97.6,0,21,0,66.9,0,21.8,0,60.1,0,21.6,0,14.7,0
2003/11/2,21:45,13.2,0,98.8,0,21,0,66.7,0,21.8,0,60.1,0,21.6,0,14.8,0
2003/11/2,22:00,13.8,0,100,0,20.9,0,66.6,0,21.7,0,60.1,0,21.5,0,14.8,0
2003/11/2,22:15,14.1,0,100,0,20.9,0,66.5,0,21.7,0,60,0,21.5,0,14.9,0
2003/11/2,22:30,14.1,0,100,0,20.9,0,66.4,0,21.6,0,60,0,21.4,0,15.1,0
2003/11/2,22:45,14.3,0,100,0,20.9,0,66.2,0,21.6,0,60.1,0,21.4,0,15.2,0
2003/11/2,23:00,14.2,0,100,0,20.9,0,66.2,0,21.6,0,60,0,21.3,0,15.2,0
2003/11/2,23:15,14.2,0,100,0,20.9,0,66,0,21.5,0,60,0,21.3,0,15.3,0
2003/11/2,23:30,14,0,100,0,20.9,0,66.1,0,21.5,0,60,0,21.2,0,15.3,0
2003/11/2,23:45,13.8,0,100,0,20.9,0,66.2,0,21.4,0,60,0,21.2,0,15.1,0
2003/11/3,0:00,13.5,0,100,0,20.8,0,66,0,21.4,0,60,0,21.2,0,15.2,0
2003/11/3,0:15,13.5,0,100,0,20.9,0,67.6,0,21.4,0,59.9,0,21.1,0,15.1,0
2003/11/3,0:30,13.4,0,100,0,20.8,0,66.4,0,21.3,0,60.1,0,21.1,0,15.2,0
2003/11/3,0:45,13.1,0,100,0,20.8,0,67.2,0,21.3,0,60.1,0,21,0,15.2,0
2003/11/3,1:00,12.7,0,100,0,20.7,0,66.7,0,21.2,0,60.2,0,21,0,15.3,0
2003/11/3,1:15,12.4,0,100,0,20.6,0,66.4,0,21.2,0,60.2,0,21,0,15.3,0
2003/11/3,1:30,12.5,0,100,0,20.6,0,66,0,21.2,0,60.2,0,20.9,0,15.4,0
2003/11/3,1:45,12.5,0,100,0,20.5,0,65.6,0,21.1,0,60.1,0,20.8,0,15.4,0
2003/11/3,2:00,12.6,0,100,0,20.4,0,65.3,0,21,0,60.1,0,20.8,0,15.5,0
2003/11/3,2:15,12.4,0,100,0,20.4,0,65.1,0,21,0,60.2,0,20.7,0,15.6,0
2003/11/3,2:30,12.4,0,100,0,20.3,0,64.9,0,20.9,0,60.1,0,20.7,0,15.7,0
2003/11/3,2:45,12.5,0,100,0,20.2,0,64.8,0,20.9,0,60.1,0,20.6,0,15.7,0
2003/11/3,3:00,12.5,0,100,0,20.1,0,64.6,0,20.8,0,60.1,0,20.5,0,15.8,0
2003/11/3,3:15,12.3,0,100,0,20.1,0,64.5,0,20.7,0,60.2,0,20.5,0,15.9,0
2003/11/3,3:30,12.1,0,100,0,20,0,64.3,0,20.7,0,60.2,0,20.4,0,16,0
2003/11/3,3:45,12.1,0,100,0,20,0,64.3,0,20.6,0,60.2,0,20.3,0,16,0
2003/11/3,4:00,12,0,100,0,19.9,0,64.2,0,20.6,0,60.2,0,20.3,0,16.1,0
2003/11/3,4:15,12,0,100,0,19.9,0,63.9,0,20.5,0,60.2,0,20.2,0,16.2,0
2003/11/3,4:30,12,0,100,0,19.8,0,63.9,0,20.5,0,60.1,0,20.1,0,16.2,0
2003/11/3,4:45,11.8,0,100,0,19.8,0,63.8,0,20.4,0,60.1,0,20.1,0,16.3,0
2003/11/3,5:00,11.7,0,100,0,19.7,0,63.8,0,20.4,0,60.1,0,20,0,16.4,0
2003/11/3,5:15,11.4,0,100,0,19.7,0,63.8,0,20.3,0,60.1,0,19.9,0,16.4,0
2003/11/3,5:30,11.1,0,100,0,19.6,0,63.7,0,20.2,0,60.1,0,19.9,0,16.5,0
2003/11/3,5:45,11.1,0,100,0,19.6,0,63.7,0,20.2,0,60.2,0,19.8,0,16.6,0
2003/11/3,6:00,11.4,0,100,0,19.5,0,63.7,0,20.1,0,60.3,0,19.8,0,16.6,0
2003/11/3,6:15,11.4,0,100,0,19.5,0,63.7,0,20.1,0,60.3,0,19.7,0,16.7,0
2003/11/3,6:30,11.5,0,100,0,19.5,0,63.8,0,20,0,60.4,0,19.7,0,16.8,0
2003/11/3,6:45,11.5,0,100,0,19.4,0,63.7,0,20,0,60.4,0,19.6,0,16.8,0
2003/11/3,7:00,11.5,0,100,0,19.4,0,63.8,0,20,0,60.4,0,19.6,0,16.9,0
2003/11/3,7:15,11.7,0,100,0,19.4,0,65.6,0,20,0,60.5,0,19.5,0,16,0
2003/11/3,7:30,12,0,100,0,19.4,0,65.3,0,20,0,60.6,0,19.5,0,15.7,0
2003/11/3,7:45,12.2,0,100,0,19.5,0,66,0,19.9,0,60.1,0,19.5,0,15.7,0
2003/11/3,8:00,12.3,0,100,0,19.5,0,66.1,0,19.9,0,60.1,0,19.5,0,15.7,0
2003/11/3,8:15,12.4,0,100,0,19.5,0,65.6,0,19.9,0,60.1,0,19.5,0,15.8,0
2003/11/3,8:30,12.9,0,100,0,19.5,0,65.7,0,19.8,0,60.1,0,19.5,0,15.8,0
2003/11/3,8:45,13.2,0,100,0,19.6,0,65.7,0,19.9,0,60.2,0,19.5,0,15.9,0
2003/11/3,9:00,13.6,0,99.8,0,19.7,0,65.7,0,20,0,60.1,0,19.5,0,15.2,0
2003/11/3,9:15,13.9,0,98,0,19.8,0,66.8,0,20.1,0,59.1,0,19.5,0,15.5,0
2003/11/3,9:30,14.2,0,97,0,20,0,72.3,0,20.4,0,60.9,0,19.6,0,15.6,0
2003/11/3,9:45,14.8,0,98.4,0,20.2,0,71.1,0,20.6,0,60.8,0,19.7,0,15.7,0
2003/11/3,10:00,15.4,0,97.7,0,20.2,0,69.5,0,20.6,0,60.7,0,19.8,0,15.2,0
2003/11/3,10:15,16.4,0,91.8,0,20.5,0,72.5,0,20.8,0,62,0,19.9,0,15.2,0
2003/11/3,10:30,16.1,0,92.2,0,20.6,0,70.3,0,20.7,0,61.7,0,20,0,15.3,0
2003/11/3,10:45,16.1,0,92.8,0,20.6,0,69.8,0,20.7,0,62.3,0,20.2,0,15.4,0
2003/11/3,11:00,16.4,0,92.5,0,20.5,0,70.5,0,20.7,0,62.1,0,20.3,0,15.5,0
2003/11/3,11:15,16.2,0,94.3,0,20.5,0,70.1,0,20.7,0,62.4,0,20.3,0,15.5,0
2003/11/3,11:30,16.4,0,94,0,20.6,0,69.8,0,20.7,0,61.7,0,20.4,0,15.6,0
2003/11/3,11:45,16.3,0,93.1,0,20.6,0,69.7,0,20.8,0,62.1,0,20.4,0,15.6,0
2003/11/3,12:00,16.8,0,91.3,0,20.6,0,69.2,0,20.8,0,62.2,0,20.5,0,15.7,0
2003/11/3,12:15,16.9,0,90.9,0,20.6,0,69.3,0,20.9,0,61.9,0,20.5,0,15.8,0
2003/11/3,12:30,17.3,0,88.9,0,21,0,68.3,0,21,0,61.5,0,20.6,0,15.9,0
2003/11/3,12:45,17.2,0,89.3,0,22.1,0,66.6,0,21.4,0,63.4,0,20.7,0,15.5,0
2003/11/3,13:00,17.4,0,89.2,0,21.7,0,67.7,0,21.7,0,63.8,0,20.8,0,15.6,0
2003/11/3,13:15,17.6,0,87.5,0,21.4,0,69.3,0,21.5,0,63.4,0,20.8,0,15.6,0
2003/11/3,13:30,17.7,0,87.9,0,21.7,0,69,0,21.5,0,64.5,0,20.9,0,15.3,0
2003/11/3,13:45,17.7,0,87,0,21.8,0,68.1,0,21.9,0,63.9,0,21,0,15.5,0
2003/11/3,14:00,17.5,0,87.2,0,20.7,0,69.2,0,21.7,0,65.2,0,21,0,15.6,0
2003/11/3,14:15,17.3,0,89.1,0,21.1,0,71.9,0,21.6,0,66,0,21.1,0,15.6,0
2003/11/3,14:30,17.1,0,90.3,0,21.3,0,74.2,0,21.6,0,68,0,21.1,0,15.6,0
2003/11/3,14:45,17,0,90.7,0,21.4,0,74.5,0,21.6,0,67.5,0,21.2,0,15.6,0
2003/11/3,15:00,16.7,0,91.5,0,21.4,0,74.5,0,21.7,0,68.8,0,21.2,0,15.6,0
2003/11/3,15:15,16.5,0,93,0,21.4,0,73.2,0,21.6,0,66.5,0,21.2,0,15.5,0
2003/11/3,15:30,16.4,0,94.2,0,21.4,0,72.5,0,21.5,0,66.1,0,21.2,0,15.5,0
2003/11/3,15:45,16.2,0,95.3,0,21.3,0,72.1,0,21.5,0,65.1,0,21.2,0,15.6,0
2003/11/3,16:00,16.1,0,96.3,0,21.3,0,71.8,0,21.4,0,64.8,0,21.2,0,15.7,0
2003/11/3,16:15,16,0,97,0,21.3,0,71.1,0,21.4,0,63.8,0,21.1,0,15.7,0
2003/11/3,16:30,16,0,97.7,0,21.2,0,71.2,0,21.3,0,63.4,0,21.1,0,15.8,0
2003/11/3,16:45,15.8,0,98.9,0,21.2,0,71.2,0,21.3,0,63,0,21.1,0,15.9,0
2003/11/3,17:00,15.8,0,100,0,21.2,0,71.2,0,21.3,0,63.8,0,21,0,16,0
2003/11/3,17:15,15.6,0,100,0,21.2,0,71,0,21.2,0,63.6,0,21,0,15.9,0
2003/11/3,17:30,15.4,0,100,0,21.2,0,70.8,0,21.2,0,63.8,0,21,0,15.9,0
2003/11/3,17:45,15.4,0,100,0,21.2,0,70.8,0,21.2,0,64.2,0,20.9,0,15.6,0
2003/11/3,18:00,15.3,0,100,0,21.2,0,71.7,0,21.1,0,64.2,0,20.9,0,15.7,0
2003/11/3,18:15,15.2,0,100,0,21.1,0,71.8,0,21.1,0,64.7,0,20.9,0,15.8,0
2003/11/3,18:30,15.1,0,100,0,21.3,0,74.7,0,21.1,0,64.8,0,20.9,0,15.9,0
2003/11/3,18:45,15.1,0,100,0,21.3,0,73.7,0,21.2,0,67,0,20.8,0,16,0
2003/11/3,19:00,15,0,100,0,21.3,0,74,0,21.2,0,65.8,0,20.9,0,16,0
2003/11/3,19:15,15.1,0,100,0,21.4,0,75.2,0,21.2,0,65,0,20.9,0,15.6,0
2003/11/3,19:30,15,0,100,0,21.4,0,73.3,0,21.2,0,65.2,0,20.9,0,15.7,0
2003/11/3,19:45,14.9,0,100,0,21.4,0,72.4,0,21.1,0,65.4,0,20.9,0,15.8,0
2003/11/3,20:00,14.9,0,100,0,21.4,0,72.2,0,21.1,0,65.3,0,20.9,0,15.9,0
2003/11/3,20:15,14.9,0,100,0,21.4,0,72,0,21.1,0,65.1,0,20.9,0,16,0
2003/11/3,20:30,14.8,0,100,0,21.4,0,71.8,0,21,0,64.9,0,20.9,0,15.2,0
2003/11/3,20:45,14.7,0,100,0,21.4,0,71.6,0,21,0,64.6,0,20.8,0,14.8,0
2003/11/3,21:00,14.6,0,100,0,22.8,0,67.2,0,21.1,0,67.5,0,20.8,0,14.8,0
2003/11/3,21:15,14.6,0,100,0,22.5,0,67.8,0,21.4,0,67.6,0,20.8,0,14.9,0
2003/11/3,21:30,14.6,0,100,0,22,0,68.7,0,21.2,0,66.3,0,20.9,0,15,0
2003/11/3,21:45,14.7,0,100,0,22,0,68.8,0,21.2,0,66.7,0,20.9,0,15.1,0
2003/11/3,22:00,14.5,0,100,0,22.1,0,68.2,0,21.2,0,64.8,0,21,0,15,0
2003/11/3,22:15,14.6,0,100,0,22.7,0,66.4,0,21.3,0,67.2,0,21,0,14.8,0
2003/11/3,22:30,14.5,0,100,0,22.1,0,68,0,21.2,0,64.4,0,21,0,14.6,0
2003/11/3,22:45,14.3,0,100,0,22,0,68.4,0,21.1,0,64,0,21,0,14.7,0
2003/11/3,23:00,14.3,0,100,0,22,0,69,0,21.1,0,63.6,0,21,0,14.4,0
2003/11/3,23:15,14.3,0,100,0,22,0,68.7,0,21.1,0,63.6,0,21,0,14.6,0
2003/11/3,23:30,14.3,0,100,0,21.9,0,68.5,0,21.1,0,63.6,0,21,0,14.7,0
2003/11/3,23:45,14.3,0,100,0,23.2,0,64.6,0,21.2,0,67,0,21,0,14.6,0
2003/11/4,0:00,14.2,0,100,0,23.7,0,62.9,0,21.7,0,66.7,0,21,0,14.8,0
2003/11/4,0:15,14.2,0,100,0,24,0,61.9,0,21.9,0,66.1,0,21.1,0,14.9,0
2003/11/4,0:30,14.1,0,100,0,24.4,0,60.7,0,22.1,0,65.6,0,21.3,0,14.9,0
2003/11/4,0:45,14.1,0,100,0,23.3,0,64.1,0,22.1,0,65.5,0,21.4,0,15,0
2003/11/4,1:00,14,0,100,0,22.9,0,65.3,0,21.8,0,65.7,0,21.5,0,15.1,0
2003/11/4,1:15,14,0,100,0,22.8,0,65.4,0,21.7,0,65.8,0,21.6,0,15.2,0
2003/11/4,1:30,14.3,0,100,0,22.6,0,65.5,0,21.6,0,65.3,0,21.6,0,15.3,0
2003/11/4,1:45,14.9,0,100,0,22.5,0,65.6,0,21.5,0,65.2,0,21.6,0,15.2,0
2003/11/4,2:00,15.8,0,93.1,0,22.4,0,66.2,0,21.5,0,65.2,0,21.6,0,15.3,0
2003/11/4,2:15,16.2,0,86.6,0,22.3,0,66.4,0,21.5,0,64.7,0,21.6,0,15.3,0
2003/11/4,2:30,16.3,0,81.7,0,22.2,0,66.5,0,21.4,0,64.7,0,21.5,0,15.4,0
2003/11/4,2:45,16.3,0,77.5,0,22.1,0,66.3,0,21.4,0,64.3,0,21.5,0,15.5,0
2003/11/4,3:00,15.7,0,77.5,0,22,0,66.3,0,21.4,0,65.1,0,21.4,0,15.6,0
2003/11/4,3:15,15.6,0,74.1,0,22,0,66.2,0,21.4,0,64.5,0,21.3,0,15.7,0
2003/11/4,3:30,15.6,0,72.6,0,21.9,0,66.4,0,21.3,0,63.4,0,21.3,0,15.8,0
2003/11/4,3:45,15.3,0,73.6,0,21.8,0,66.2,0,21.3,0,63.2,0,21.2,0,15.9,0
2003/11/4,4:00,15.2,0,74.3,0,21.7,0,66.1,0,21.2,0,63.1,0,21.2,0,15.9,0
2003/11/4,4:15,15,0,75.5,0,21.7,0,66.1,0,21.2,0,62.9,0,21.1,0,16,0
2003/11/4,4:30,14.9,0,73.8,0,21.6,0,66,0,21.2,0,63.1,0,21.1,0,16.1,0
2003/11/4,4:45,14.6,0,74.2,0,21.5,0,66,0,21.1,0,63,0,21,0,16.2,0
2003/11/4,5:00,14.4,0,75.9,0,21.4,0,65.9,0,21.1,0,62.5,0,21,0,16.3,0
2003/11/4,5:15,14.3,0,76.1,0,21.4,0,65.7,0,21.1,0,62.3,0,20.9,0,16.4,0
2003/11/4,5:30,14,0,76.4,0,21.3,0,65.6,0,21,0,62,0,20.9,0,16.5,0
2003/11/4,5:45,13.8,0,73.5,0,21.2,0,65.4,0,21,0,61.9,0,20.8,0,16.5,0
2003/11/4,6:00,13.5,0,70.7,0,21.2,0,65.1,0,21,0,61.7,0,20.8,0,16.6,0
2003/11/4,6:15,13.3,0,68.5,0,21.2,0,64.5,0,21,0,61.5,0,20.8,0,16,0
2003/11/4,6:30,13.2,0,65.6,0,21.1,0,63.7,0,20.9,0,60.5,0,20.7,0,15.5,0
2003/11/4,6:45,13.3,0,67.3,0,21,0,63.2,0,20.8,0,59.9,0,20.6,0,15.5,0
2003/11/4,7:00,13.5,0,64.7,0,21.1,0,64.5,0,20.8,0,60.3,0,20.6,0,15.6,0
2003/11/4,7:15,13.5,0,62,0,21.2,0,64.7,0,20.8,0,60.3,0,20.6,0,15.6,0
2003/11/4,7:30,13.5,0,61.2,0,21,0,63.4,0,20.8,0,60.6,0,20.6,0,15.7,0
2003/11/4,7:45,13.7,0,63.8,0,21.2,0,63.9,0,20.9,0,61.5,0,20.7,0,15.8,0
2003/11/4,8:00,13.8,0,62.5,0,21.4,0,64.4,0,21,0,61.1,0,20.7,0,15.9,0
2003/11/4,8:15,13.9,0,60.8,0,21.5,0,63.8,0,21.3,0,60,0,20.8,0,15.3,0
2003/11/4,8:30,14.1,0,62.3,0,21.5,0,63.7,0,21.5,0,59.2,0,20.8,0,14.7,0
2003/11/4,8:45,14.3,0,58,0,21.6,0,63.5,0,21.7,0,58.7,0,20.9,0,14.8,0
2003/11/4,9:00,14.7,0,57.4,0,21.7,0,62.5,0,21.9,0,58.1,0,20.9,0,14.9,0
2003/11/4,9:15,14.5,0,52.7,0,21.7,0,61.8,0,22.2,0,57.9,0,21,0,15,0
2003/11/4,9:30,14.8,0,52.6,0,21.7,0,61.6,0,22.4,0,57.4,0,21,0,15.2,0
2003/11/4,9:45,14.9,0,48,0,21.7,0,61.1,0,22.5,0,57,0,21.1,0,15.4,0
2003/11/4,10:00,15.2,0,48.2,0,21.6,0,61,0,22.7,0,56.6,0,21.2,0,15.6,0
2003/11/4,10:15,15.4,0,47.7,0,21.7,0,60.3,0,22.8,0,56.5,0,21.2,0,15.1,0
2003/11/4,10:30,15.4,0,50.9,0,21.7,0,59.8,0,23,0,55.9,0,21.3,0,15.2,0
2003/11/4,10:45,15.4,0,46.5,0,21.6,0,59.5,0,23.1,0,55.4,0,21.3,0,15.3,0
2003/11/4,11:00,15.7,0,44.1,0,21.6,0,59.2,0,23.2,0,54.7,0,21.4,0,15.4,0
2003/11/4,11:15,15.7,0,44,0,21.6,0,59.2,0,23.4,0,54.3,0,21.4,0,15.5,0
2003/11/4,11:30,15.9,0,43.3,0,21.6,0,59,0,23.4,0,54,0,21.5,0,15.6,0
2003/11/4,11:45,16,0,42.1,0,21.6,0,58.8,0,23.5,0,53.7,0,21.6,0,15.8,0
2003/11/4,12:00,16.3,0,44,0,21.6,0,58.4,0,23.6,0,53.4,0,21.6,0,15.9,0
2003/11/4,12:15,16.2,0,44.9,0,21.5,0,58.7,0,23.7,0,53.3,0,21.7,0,16,0